WE0DX-1 Weather Reports


Display with metric or nautical units.
time (UTC)temp
F
wind
direction
speed
MPH
gust
MPH
rain 1hr
in
rain 24hr
in
rain mn
in
humidity
%
barometer
mb
20260507073636 45 45 0.0 0.0 0.00 0.00 0.00 71 1016.6
20260507073132 45 45 0.0 0.0 0.00 0.00 0.00 71 1016.6
20260507072630 45 45 0.0 0.0 0.00 0.00 0.00 71 1016.4
20260507072127 46 45 0.0 0.0 0.00 0.00 0.00 72 1016.3
20260507071624 46 45 0.0 0.0 0.00 0.00 0.00 71 1016.6
20260507071120 46 45 0.0 0.0 0.00 0.00 0.00 72 1016.7
20260507070618 45 45 0.0 0.0 0.00 0.00 0.00 72 1016.5
20260507070115 46 45 0.0 0.0 0.00 0.00 0.00 72 1016.9
20260507065611 45 45 0.0 0.0 0.00 0.00 0.00 70 1016.8
20260507065108 46 45 0.0 0.0 0.00 0.00 0.00 70 1016.8
20260507064606 46 45 0.0 0.0 0.00 0.00 0.00 71 1016.7
20260507064104 46 45 0.0 0.0 0.00 0.00 0.00 70 1016.8
20260507063601 47 45 0.0 0.0 0.00 0.00 0.00 69 1016.8
20260507063059 48 45 0.0 0.0 0.00 0.00 0.00 67 1017.1
20260507062555 48 45 0.0 0.0 0.00 0.00 0.00 63 1017.1
20260507062053 48 45 0.0 0.0 0.00 0.00 0.00 64 1016.8
20260507061550 47 45 0.0 0.0 0.00 0.00 0.00 70 1017.1
20260507061048 47 45 0.0 0.0 0.00 0.00 0.00 67 1016.7
20260507060546 48 45 0.0 0.0 0.00 0.00 0.00 67 1017.0
20260507060042 48 45 0.0 0.0 0.00 0.00 0.00 67 1017.0
20260507055537 49 45 0.0 0.0 0.00 0.00 0.00 66 1016.9
20260507055034 49 45 0.0 0.0 0.00 0.00 0.00 63 1017.0
20260507054530 49 45 0.0 0.0 0.00 0.00 0.00 60 1017.0
20260507054027 50 41 0.0 0.0 0.00 0.00 0.00 60 1017.0
20260507053525 50 41 0.0 0.0 0.00 0.00 0.00 59 1017.1
20260507053023 50 41 0.0 0.0 0.00 0.00 0.00 58 1017.0
20260507052521 50 41 0.0 0.0 0.00 0.00 0.00 56 1017.0
20260507052017 50 41 0.0 0.0 0.00 0.00 0.00 54 1016.7
20260507051515 50 41 0.0 0.0 0.00 0.00 0.00 54 1017.2
20260507051012 50 41 0.0 0.0 0.00 0.00 0.00 53 1016.9
20260507050508 50 41 0.0 0.0 0.00 0.00 0.00 52 1016.7
20260507050005 50 41 0.0 0.0 0.00 0.02 0.02 52 1016.8
20260507045501 50 41 0.0 0.0 0.00 0.02 0.02 51 1016.8
20260507044959 50 41 0.0 0.0 0.00 0.02 0.02 50 1016.9
20260507044455 51 41 0.0 0.0 0.00 0.02 0.02 49 1017.2
20260507043951 51 41 0.0 0.0 0.00 0.02 0.02 50 1016.9
20260507043448 51 41 0.0 0.0 0.00 0.02 0.02 52 1016.9
20260507042944 50 41 0.0 0.0 0.00 0.02 0.02 50 1016.9
20260507042441 50 41 0.0 0.0 0.00 0.02 0.02 50 1017.1
20260507041937 50 41 0.0 0.0 0.00 0.02 0.02 53 1017.0
20260507041434 50 41 0.0 0.0 0.00 0.02 0.02 52 1017.2
20260507040931 49 41 0.0 0.0 0.00 0.02 0.02 56 1017.0
20260507040432 50 41 0.0 0.0 0.00 0.02 0.02 66 1017.3
20260507035928 50 41 0.0 0.0 0.00 0.02 0.02 59 1017.3
20260507035424 50 41 0.0 0.0 0.00 0.02 0.02 58 1017.2
20260507034921 50 41 0.0 0.0 0.00 0.02 0.02 51 1017.1
20260507034418 51 41 0.0 0.0 0.00 0.02 0.02 55 1017.3
20260507033916 51 41 0.0 0.0 0.00 0.02 0.02 49 1017.2
20260507033414 51 41 0.0 0.0 0.00 0.02 0.02 44 1017.2
20260507032911 51 41 0.0 0.0 0.00 0.02 0.02 47 1017.1
20260507032408 51 41 0.0 0.0 0.00 0.02 0.02 47 1017.1
20260507031903 51 41 0.0 0.0 0.00 0.02 0.02 47 1017.2
20260507031400 51 41 0.0 0.0 0.00 0.02 0.02 47 1017.1
20260507030857 51 41 0.0 0.0 0.00 0.02 0.02 48 1017.2
20260507030354 50 41 0.0 0.0 0.00 0.02 0.02 49 1017.3
20260507025851 50 41 0.0 0.0 0.00 0.02 0.02 57 1017.2
20260507025349 50 41 0.0 0.0 0.00 0.02 0.02 59 1017.1
20260507024846 50 40 0.0 0.0 0.00 0.02 0.02 57 1017.0
20260507024343 50 48 0.0 0.0 0.00 0.02 0.02 55 1017.2
20260507023839 50 48 0.0 0.0 0.00 0.02 0.02 54 1017.0
20260507023336 50 48 0.0 0.0 0.00 0.02 0.02 53 1017.0
20260507022833 50 44 0.0 0.0 0.00 0.02 0.02 51 1016.9
20260507022330 50 44 0.0 0.0 0.00 0.02 0.02 49 1017.1
20260507021826 51 48 0.0 0.0 0.00 0.02 0.02 50 1016.8
20260507021321 51 48 0.0 0.0 0.00 0.02 0.02 47 1016.9
20260507020819 51 44 0.0 0.0 0.00 0.02 0.02 45 1016.8
20260507020316 51 48 0.0 0.0 0.00 0.02 0.02 45 1016.8
20260507015813 51 44 0.0 0.0 0.00 0.02 0.02 48 1016.5
20260507015311 52 44 0.0 0.0 0.00 0.02 0.02 50 1016.6
20260507014808 52 44 0.0 0.0 0.00 0.02 0.02 46 1016.7
20260507014304 52 44 0.0 0.0 0.00 0.02 0.02 43 1016.6
20260507013800 53 44 0.0 0.0 0.00 0.02 0.02 43 1016.6
20260507013258 54 44 0.0 0.0 0.00 0.02 0.02 43 1016.6
20260507012755 54 41 0.0 0.0 0.00 0.02 0.02 42 1016.5
20260507012250 54 41 0.0 0.0 0.00 0.02 0.02 45 1016.6
20260507011748 54 42 0.0 0.0 0.00 0.02 0.02 43 1016.5
20260507011244 55 41 0.0 0.0 0.00 0.02 0.02 42 1016.4
20260507010744 55 41 0.0 0.0 0.00 0.02 0.02 42 1016.4
20260507010240 56 41 0.0 0.0 0.00 0.02 0.02 41 1016.3
20260507005738 56 41 0.0 0.0 0.00 0.02 0.02 39 1016.4
20260507005234 57 41 0.0 0.0 0.00 0.02 0.02 39 1016.5
20260507004731 57 41 0.0 0.0 0.00 0.02 0.02 38 1016.4
20260507004229 57 40 0.0 0.0 0.00 0.02 0.02 36 1016.3
20260507003725 57 40 0.0 0.0 0.00 0.02 0.02 35 1016.6
20260507003220 58 39 0.0 0.0 0.00 0.02 0.02 36 1016.3
20260507002716 58 32 1.0 2.0 0.00 0.02 0.02 34 1016.0
20260507002212 58 37 0.0 1.0 0.00 0.02 0.02 36 1016.5
20260507001709 58 36 1.0 2.0 0.00 0.02 0.02 34 1016.1
20260507001207 58 37 0.0 1.0 0.00 0.02 0.02 34 1016.4
20260507000703 58 340 1.0 2.0 0.00 0.02 0.02 34 1016.3
20260507000158 58 343 2.0 3.0 0.00 0.02 0.02 33 1016.5
20260506235656 58 344 2.0 2.0 0.00 0.02 0.02 34 1016.5
20260506235151 59 315 2.0 2.0 0.00 0.02 0.02 34 1016.5
20260506234648 59 34 1.0 2.0 0.00 0.02 0.02 34 1016.5
20260506234145 59 46 0.0 1.0 0.00 0.02 0.02 34 1016.4
20260506233642 59 53 1.0 2.0 0.00 0.02 0.02 34 1016.5
20260506233139 59 33 1.0 2.0 0.00 0.02 0.02 34 1016.5
20260506232635 59 354 2.0 2.0 0.00 0.02 0.02 34 1016.4
20260506232131 59 21 1.0 2.0 0.00 0.02 0.02 34 1016.4
20260506231628 59 0 1.0 3.0 0.00 0.02 0.02 34 1016.5
20260506231127 59 17 1.0 1.0 0.00 0.02 0.02 34 1016.1
20260506230623 59 39 2.0 2.0 0.00 0.02 0.02 34 1016.6
20260506230120 59 48 1.0 2.0 0.00 0.02 0.02 34 1016.4
20260506225617 59 20 2.0 3.0 0.00 0.02 0.02 34 1016.1
20260506225113 59 323 2.0 3.0 0.00 0.02 0.02 34 1016.5
20260506224610 59 12 1.0 2.0 0.00 0.02 0.02 35 1016.5
20260506224106 59 21 2.0 2.0 0.00 0.02 0.02 34 1016.3
20260506223602 59 318 1.0 2.0 0.00 0.02 0.02 35 1016.5
20260506223059 59 52 0.0 2.0 0.00 0.02 0.02 33 1016.5
20260506222556 59 44 0.0 2.0 0.00 0.02 0.02 33 1016.5
20260506222052 59 31 1.0 2.0 0.00 0.02 0.02 34 1016.7
20260506221550 59 310 3.0 5.0 0.00 0.02 0.02 33 1016.6
20260506221048 59 15 1.0 2.0 0.00 0.02 0.02 34 1016.9
20260506220543 59 349 2.0 2.0 0.00 0.02 0.02 34 1016.4
20260506220039 59 325 2.0 5.0 0.00 0.02 0.02 34 1016.5
20260506215536 59 284 3.0 3.0 0.00 0.02 0.02 35 1016.5
20260506215032 59 2 1.0 2.0 0.00 0.02 0.02 34 1016.8
20260506214529 59 308 1.0 3.0 0.00 0.02 0.02 33 1016.8
20260506214026 59 10 1.0 6.0 0.00 0.02 0.02 34 1016.7
20260506213524 59 350 2.0 6.0 0.00 0.02 0.02 32 1017.0
20260506213021 59 34 2.0 6.0 0.00 0.02 0.02 33 1016.8
20260506212518 59 290 3.0 5.0 0.00 0.02 0.02 34 1016.9
20260506212013 59 2 3.0 5.0 0.00 0.02 0.02 34 1016.9
20260506211509 60 15 4.0 5.0 0.00 0.02 0.02 33 1017.0
20260506211006 59 1 1.0 2.0 0.00 0.02 0.02 34 1017.2
20260506210502 59 10 3.0 5.0 0.00 0.02 0.02 33 1017.3
20260506205959 59 354 2.0 3.0 0.00 0.02 0.02 33 1017.2
20260506205456 59 4 2.0 3.0 0.00 0.02 0.02 33 1017.4
20260506204952 60 352 1.0 3.0 0.00 0.02 0.02 31 1017.3
20260506204450 60 30 1.0 5.0 0.00 0.02 0.02 33 1017.4
20260506203947 60 56 0.0 2.0 0.00 0.02 0.02 34 1017.7
20260506203444 60 60 0.0 2.0 0.00 0.02 0.02 36 1017.6
20260506202941 60 233 4.0 5.0 0.00 0.02 0.02 32 1017.4
20260506202438 59 330 1.0 1.0 0.00 0.02 0.02 33 1017.7
20260506201934 59 5 1.0 2.0 0.00 0.02 0.02 33 1017.7
20260506201432 59 333 3.0 5.0 0.00 0.02 0.02 36 1017.8
20260506200928 59 350 2.0 3.0 0.00 0.02 0.02 34 1017.6
20260506200425 59 254 0.0 2.0 0.00 0.02 0.02 33 1017.9
20260506195916 58 332 3.0 5.0 0.00 0.02 0.02 33 1017.6
20260506195413 59 351 2.0 3.0 0.00 0.02 0.02 35 1017.8
20260506194910 58 39 0.0 2.0 0.00 0.02 0.02 33 1017.9
20260506194407 58 358 2.0 3.0 0.00 0.02 0.02 34 1017.9
20260506193903 58 291 2.0 5.0 0.00 0.02 0.02 34 1018.0
20260506193401 58 298 2.0 3.0 0.00 0.02 0.02 34 1017.8
20260506192856 57 335 1.0 2.0 0.00 0.02 0.02 35 1018.1
20260506192353 57 307 2.0 2.0 0.00 0.02 0.02 36 1018.2
20260506191851 57 36 0.0 3.0 0.00 0.02 0.02 34 1018.0
20260506191346 58 36 3.0 6.0 0.00 0.02 0.02 34 1018.1
20260506190844 58 240 1.0 3.0 0.00 0.02 0.02 33 1018.0
20260506190339 57 87 0.0 1.0 0.00 0.02 0.02 34 1018.1
20260506185837 57 336 3.0 6.0 0.00 0.02 0.02 33 1018.0
20260506185334 57 283 2.0 2.0 0.00 0.02 0.02 36 1018.0
20260506184831 57 219 2.0 2.0 0.00 0.02 0.02 37 1018.4
20260506184328 56 266 3.0 5.0 0.00 0.02 0.02 35 1018.5
20260506183826 57 335 4.0 5.0 0.00 0.02 0.02 34 1018.3
20260506183320 57 32 3.0 3.0 0.00 0.02 0.02 36 1018.3
20260506182818 57 320 1.0 2.0 0.00 0.02 0.02 36 1018.7
20260506182315 58 337 2.0 2.0 0.00 0.02 0.02 34 1018.4
20260506181813 57 354 2.0 3.0 0.00 0.02 0.02 32 1018.9
20260506181310 57 358 4.0 6.0 0.00 0.02 0.02 33 1018.9
20260506180807 57 38 1.0 2.0 0.00 0.02 0.02 35 1018.6
20260506180303 57 311 3.0 3.0 0.00 0.02 0.02 34 1018.9
20260506175754 57 353 2.0 2.0 0.00 0.02 0.02 36 1018.8
20260506175251 56 331 1.0 2.0 0.00 0.02 0.02 37 1018.7
20260506174749 55 18 2.0 3.0 0.00 0.02 0.02 36 1018.5
20260506174246 56 302 3.0 6.0 0.00 0.02 0.02 35 1018.6
20260506173743 55 47 1.0 2.0 0.00 0.02 0.02 35 1018.8
20260506173240 55 47 3.0 7.0 0.00 0.02 0.02 34 1018.8
20260506172736 55 344 2.0 2.0 0.00 0.02 0.02 39 1018.4
20260506172233 55 301 3.0 6.0 0.00 0.02 0.02 36 1018.5
20260506171725 55 336 3.0 3.0 0.00 0.02 0.02 37 1018.6
20260506171222 56 9 1.0 2.0 0.00 0.02 0.02 37 1018.6
20260506170719 56 22 2.0 3.0 0.00 0.02 0.02 39 1018.6
20260506170216 56 23 1.0 5.0 0.00 0.02 0.02 35 1018.5
20260506165715 56 19 2.0 3.0 0.00 0.02 0.02 39 1018.8
20260506165211 56 43 1.0 6.0 0.00 0.02 0.02 37 1018.9
20260506164709 57 49 1.0 5.0 0.00 0.02 0.02 37 1018.6
20260506164206 57 45 0.0 3.0 0.00 0.02 0.02 38 1018.6
20260506163702 56 9 2.0 2.0 0.00 0.02 0.02 38 1018.6
20260506163157 55 35 2.0 3.0 0.00 0.02 0.02 39 1018.6
20260506162653 55 334 3.0 5.0 0.00 0.02 0.02 34 1018.6
20260506162151 57 50 0.0 2.0 0.00 0.02 0.02 38 1018.7
20260506161648 55 62 1.0 7.0 0.00 0.02 0.02 38 1018.7
20260506161144 55 310 3.0 5.0 0.00 0.02 0.02 38 1018.7
20260506160642 55 31 2.0 5.0 0.00 0.02 0.02 36 1018.7
20260506160138 56 22 1.0 2.0 0.00 0.02 0.02 39 1018.4
20260506155637 56 49 2.0 6.0 0.00 0.02 0.02 41 1018.2
20260506155134 54 46 3.0 3.0 0.00 0.02 0.02 40 1018.2
20260506153236 53 39 2.0 5.0 0.00 0.02 0.02 38 1018.2
20260506152733 54 332 2.0 3.0 0.00 0.02 0.02 39 1018.2
20260506152230 54 345 3.0 5.0 0.00 0.02 0.02 40 1018.1
20260506151729 55 313 1.0 2.0 0.00 0.02 0.02 44 1018.1
20260506151225 54 359 1.0 2.0 0.00 0.02 0.02 40 1018.3
20260506150721 54 57 1.0 2.0 0.00 0.02 0.02 45 1018.1
20260506150219 54 338 2.0 3.0 0.00 0.02 0.02 45 1018.3
20260506145716 55 24 1.0 3.0 0.00 0.02 0.02 44 1018.2
20260506145212 54 14 2.0 2.0 0.00 0.02 0.02 45 1018.3
20260506144710 53 84 0.0 2.0 0.00 0.02 0.02 47 1018.5
20260506144206 53 36 1.0 3.0 0.00 0.02 0.02 45 1018.1
20260506143704 53 54 0.0 2.0 0.00 0.02 0.02 49 1018.0
20260506143202 54 58 0.0 0.0 0.00 0.02 0.02 54 1017.9
20260506142700 53 37 1.0 2.0 0.00 0.02 0.02 52 1018.3
20260506142158 52 53 0.0 0.0 0.00 0.02 0.02 57 1018.0
20260506141655 51 38 1.0 2.0 0.00 0.02 0.02 58 1018.3
20260506141153 51 44 2.0 2.0 0.00 0.02 0.02 57 1018.0
20260506140650 51 52 0.0 2.0 0.00 0.02 0.02 58 1017.9
20260506140148 51 53 0.0 0.0 0.00 0.02 0.02 58 1017.7
20260506135644 50 41 1.0 2.0 0.00 0.02 0.02 61 1017.7
20260506135141 50 55 1.0 2.0 0.00 0.02 0.02 61 1017.6
20260506134637 50 50 0.0 1.0 0.00 0.02 0.02 61 1017.7
20260506134133 49 50 0.0 2.0 0.00 0.02 0.02 64 1017.9
20260506133631 49 7 1.0 2.0 0.00 0.02 0.02 62 1017.7
20260506133127 49 49 0.0 2.0 0.00 0.02 0.02 62 1017.4
20260506132625 49 39 2.0 3.0 0.00 0.02 0.02 62 1017.4
20260506132122 49 52 0.0 1.0 0.00 0.02 0.02 65 1017.4
20260506131619 49 39 0.0 3.0 0.00 0.02 0.02 63 1017.2
20260506131115 49 38 1.0 2.0 0.00 0.02 0.02 64 1017.1
20260506130612 49 34 1.0 2.0 0.00 0.02 0.02 66 1017.0
20260506130110 48 45 1.0 2.0 0.00 0.02 0.02 68 1017.0
20260506125608 48 357 2.0 2.0 0.00 0.02 0.02 68 1017.0
20260506125106 48 52 1.0 3.0 0.00 0.02 0.02 72 1017.1
20260506124603 48 44 1.0 2.0 0.00 0.02 0.02 74 1016.8
20260506124101 47 50 1.0 1.0 0.00 0.02 0.02 81 1016.4
20260506123558 47 58 0.0 0.0 0.00 0.02 0.02 84 1016.7
20260506123057 47 58 0.0 0.0 0.00 0.02 0.02 85 1016.8
20260506122553 47 58 0.0 0.0 0.00 0.02 0.02 86 1016.3
20260506122051 46 57 0.0 0.0 0.00 0.02 0.02 88 1016.3
20260506121549 46 57 0.0 0.0 0.00 0.02 0.02 90 1016.4
20260506121044 46 59 0.0 0.0 0.00 0.02 0.02 89 1016.0
20260506120542 45 59 0.0 0.0 0.00 0.02 0.02 89 1016.1
20260506120039 44 59 0.0 0.0 0.00 0.02 0.02 91 1015.8
20260506115537 45 58 0.0 0.0 0.00 0.02 0.02 92 1015.5
20260506115036 44 56 0.0 0.0 0.00 0.02 0.02 91 1015.6
20260506114532 44 72 0.0 0.0 0.00 0.02 0.02 94 1015.6
20260506114031 44 72 0.0 0.0 0.00 0.02 0.02 95 1015.5
20260506113528 44 72 0.0 0.0 0.00 0.02 0.02 95 1015.5
20260506113026 44 72 0.0 0.0 0.00 0.02 0.02 95 1015.4
20260506112522 44 72 0.0 0.0 0.00 0.02 0.02 95 1015.3
20260506112019 45 72 0.0 0.0 0.00 0.02 0.02 94 1015.6
20260506111518 45 72 0.0 0.0 0.00 0.02 0.02 95 1015.7
20260506111014 45 72 0.0 0.0 0.00 0.02 0.02 94 1015.7
20260506110512 45 72 0.0 0.0 0.00 0.02 0.02 93 1015.5
20260506110009 45 71 0.0 0.0 0.00 0.02 0.02 92 1015.7
20260506105505 45 78 0.0 0.0 0.00 0.02 0.02 91 1015.7
20260506105002 45 63 0.0 0.0 0.00 0.02 0.02 91 1015.8
20260506104500 45 57 0.0 0.0 0.00 0.02 0.02 91 1016.1
20260506103958 45 68 0.0 0.0 0.00 0.02 0.02 91 1015.6
20260506103455 45 68 0.0 0.0 0.00 0.02 0.02 91 1015.5
20260506102952 45 28 1.0 1.0 0.00 0.02 0.02 90 1015.8
20260506102450 45 43 0.0 1.0 0.00 0.02 0.02 91 1015.7
20260506101947 45 1 1.0 1.0 0.00 0.02 0.02 92 1015.8
20260506101443 45 17 1.0 2.0 0.00 0.02 0.02 93 1015.7
20260506100941 45 31 0.0 1.0 0.00 0.02 0.02 92 1015.4
20260506100439 45 47 0.0 0.0 0.00 0.02 0.02 93 1015.2
20260506095937 45 47 0.0 0.0 0.00 0.02 0.02 94 1015.0
20260506095435 45 47 0.0 0.0 0.00 0.02 0.02 93 1015.0
20260506094931 45 47 0.0 0.0 0.00 0.02 0.02 94 1015.2
20260506094430 45 47 0.0 0.0 0.00 0.02 0.02 93 1015.1
20260506093927 44 47 0.0 0.0 0.00 0.02 0.02 93 1015.1
20260506093425 44 69 0.0 0.0 0.00 0.02 0.02 94 1015.1
20260506092922 44 37 0.0 1.0 0.00 0.02 0.02 95 1015.1
20260506092420 45 59 1.0 1.0 0.00 0.02 0.02 95 1015.1
20260506091916 45 45 1.0 1.0 0.00 0.02 0.02 95 1014.9
20260506091414 45 45 1.0 1.0 0.00 0.02 0.02 94 1015.1
20260506090911 45 48 0.0 0.0 0.00 0.02 0.02 94 1014.8
20260506090409 45 49 0.0 0.0 0.00 0.02 0.02 93 1015.1
20260506085905 45 49 0.0 0.0 0.00 0.02 0.02 93 1014.9
20260506085402 45 51 0.0 0.0 0.00 0.02 0.02 92 1014.9
20260506084858 45 52 0.0 0.0 0.00 0.02 0.02 92 1014.9
20260506084355 45 52 0.0 0.0 0.00 0.02 0.02 93 1015.0
20260506083852 45 52 0.0 0.0 0.00 0.02 0.02 93 1014.8
20260506083349 45 55 0.0 0.0 0.00 0.02 0.02 93 1014.8
20260506082846 45 57 0.0 0.0 0.00 0.02 0.02 93 1015.0
20260506082343 45 59 0.0 0.0 0.00 0.02 0.02 93 1014.7
20260506081833 45 60 0.0 0.0 0.00 0.02 0.02 93 1014.6
20260506081332 45 61 0.0 0.0 0.00 0.02 0.02 93 1014.6
20260506080829 45 61 0.0 0.0 0.00 0.02 0.02 92 1014.4
20260506080326 45 61 0.0 0.0 0.00 0.02 0.02 92 1014.2